Date,TemperatureHighF,TemperatureAvgF,TemperatureLowF,DewpointHighF,DewpointAvgF,DewpointLowF,HumidityHigh,HumidityAvg,HumidityLow,PressureMaxIn,PressureMinIn,WindSpeedMaxMPH,WindSpeedAvgMPH,GustSpeedMaxMPH,PrecipitationSumIn
2013-3-1,54.0,47.5,41.1,-99.9,-99.9,-99.9,0,0,100,19.99,19.99,14,4,14,0.00
2013-3-2,52.6,44.8,38.9,-99.9,-99.9,-99.9,0,0,100,19.99,19.99,15,6,15,0.00
2013-3-3,48.7,41.7,34.0,-99.9,-99.9,-99.9,0,0,100,19.99,19.99,14,5,14,0.00
2013-3-4,56.4,43.7,30.3,-99.9,-99.9,-99.9,0,0,100,19.99,19.99,15,5,15,0.00
2013-3-5,62.4,55.4,44.2,-99.9,-99.9,-99.9,0,0,100,19.99,19.99,20,5,20,0.00
2013-3-6,58.6,48.6,42.0,-99.9,-99.9,-99.9,0,0,100,19.99,19.98,30,10,30,0.00
2013-3-7,59.8,47.4,37.8,-99.9,-99.9,-99.9,0,0,100,19.99,19.99,14,4,14,0.00
2013-3-8,60.2,48.6,38.5,-99.9,-99.9,-99.9,0,0,100,19.99,19.99,17,4,17,0.00
2013-3-9,56.2,48.2,38.7,-99.9,-99.9,-99.9,0,0,100,19.99,19.99,14,4,14,0.00
2013-3-10,61.5,51.8,41.3,-99.9,-99.9,-99.9,0,0,100,19.99,19.99,18,5,23,0.00
2013-3-11,69.4,60.5,50.4,-99.9,-99.9,-99.9,0,0,100,19.99,19.99,17,5,19,0.00
2013-3-12,68.7,63.8,57.5,-99.9,-99.9,-99.9,0,0,100,19.99,19.98,23,7,25,0.00
2013-3-13,66.9,57.2,47.1,-99.9,-99.9,-99.9,0,0,100,19.99,19.98,18,6,25,0.00
2013-3-14,55.8,47.1,37.9,-99.9,-99.9,-99.9,0,0,100,19.99,19.99,16,5,21,0.00
2013-3-15,60.8,51.8,40.7,-99.9,-99.9,-99.9,0,0,100,19.99,19.98,13,4,19,0.00
2013-3-16,76.2,63.2,56.2,-99.9,-99.9,-99.9,0,0,100,19.99,19.99,16,7,24,0.00
2013-3-17,73.9,64.3,58.8,-99.9,-99.9,-99.9,0,0,100,19.99,19.99,17,6,23,0.00
2013-3-18,65.3,60.9,57.5,-99.9,-99.9,-99.9,0,0,100,19.99,19.98,24,5,24,0.00
2013-3-19,76.5,63.9,56.1,-99.9,-99.9,-99.9,0,0,100,19.99,19.98,24,4,28,0.00
2013-3-20,60.9,54.2,44.4,-99.9,-99.9,-99.9,0,0,100,19.99,19.99,20,6,25,0.00
2013-3-21,59.4,50.0,42.9,-99.9,-99.9,-99.9,0,0,100,19.99,19.99,22,6,29,0.00
2013-3-22,51.1,45.2,37.7,-99.9,-99.9,-99.9,0,0,100,19.99,19.99,15,4,17,0.00
2013-3-23,55.6,49.4,43.4,-99.9,-99.9,-99.9,0,0,100,19.99,19.99,14,4,20,0.00
2013-3-24,66.7,54.2,47.2,-99.9,-99.9,-99.9,0,0,100,19.99,19.99,25,7,28,0.00
2013-3-25,57.2,50.2,44.2,-99.9,-99.9,-99.9,0,0,100,19.99,19.99,27,9,35,0.00
2013-3-26,51.6,44.2,36.3,-99.9,-99.9,-99.9,0,0,100,19.99,19.99,18,7,25,0.00
2013-3-27,59.9,47.7,36.2,-99.9,-99.9,-99.9,0,0,100,19.99,19.99,12,4,20,0.00
2013-3-28,61.6,49.4,37.2,-99.9,-99.9,-99.9,0,0,100,19.98,19.98,18,4,18,0.00
2013-3-29,59.7,50.6,38.6,-99.9,-99.9,-99.9,0,0,100,19.98,19.98,16,4,20,0.00
2013-3-30,70.1,60.3,52.9,-99.9,-99.9,-99.9,0,0,100,19.99,19.99,15,4,22,0.00
2013-3-31,70.0,63.5,56.9,-99.9,-99.9,-99.9,0,0,100,19.99,19.98,17,7,25,0.00